Погода Озерная

Погода Озерная : погода сейчас, прогноз погоды и архив. Всё, что Вы хотите узнать о погоде Озерная!

Хотите узнать прогноз погоды Озерная? Тогда Вам сюда: Погода Озерная

Поиск расширенной информации на нашем сайте:

Другие новости

Новости СМИ2

Главная страница сайта

Новости сайта

03.07.2017

Напоминаем, что на нашем специализированном сайте Метеоцентр.Азия вы можете получить высокодетализированные автоматические прогнозы погоды по пунктам России, СНГ и мира в авиационном формате (включающие направление и скорость ветра, видимость, явления погоды, количество и форму облачности, нижнюю и верхнюю границу облачности).


Погода Озерная - сегодня

Время (UTC), дата Ветер
(°,м/с) 
Видим.   Явления Облачность Т
(°С)
Тd
(°С)
f(%) Тe
(°С)
Pmin
(гПа)
dP
(гПа)
Po
(мм)
O2
(г/м3)
Тmin Tmax R s Состояние
почвы
06 16.09.17 230 (ЮЗ) 20000 м    8/6 1000 м верхняя 
[Sc|Ci]
+10.4 +8.4 87 +12  1019.4  0.5  762  294           
12 16.09.17 200 (Ю) 10 км    10/10 300 м 
[St]
+8.2 +6.9 92 +8  1019.9  0.5  762  297           
15 16.09.17 120 (ЮВ) 10 км    10/10 600 м 
[Sc]
+6.7 +5.5 92 +7  1019.5  -0.5  762  299           
18 16.09.17 170 (Ю) 10 км  слаб. ливневой дождь  10/10 300 м кучево-дожд. 
[Cb cap]
+8.8 +7.9 94 +7  1018.8  -0.6  761  296           
03 17.09.17 190 (Ю) 10 км  {ливн. осадки, морось}  10/10 200 м 
[St]
+10 +9.3 95 +8  1019.8  -0.2  762  295           
06 17.09.17 190 (Ю) 10 км  {ливн. осадки, морось}  10/10 200 м 
[St]
+10.2 +9.6 96 +10  1020  0.2  762  294           
12 17.09.17 140 (ЮВ) 2000 м  туман на расстоянии{ливн. осадки}  10/10 100 м 
[St]
+9.8 +9.5 98 +10  1021.9  0.8  764  295           
15 17.09.17 100 (В) 4000 м  слаб. морось  10/10 200 м 
[St]
+9.3 +9 98 +10  1022.7  0.8  764  296           
18 17.09.17 тихо ()   10 км  слаб. ливневой дождь{морось}  10/10 200 м кучево-дожд. 
[Cb cap]
+8.4 +7.9 97 +8  1023.1  0.4  765  298           
03 18.09.17 180 (Ю) 10 км    9/9 300 м 
[St]
+10.9 +9.8 93 +11  1023.3  -0.2  765  295           
06 18.09.17 190 (Ю) 10 км    10/10 300 м 
[St]
+10.1 +9.3 95 +9  1023  -0.3  765  295           
12 18.09.17 190 (Ю) 0500 м  слаб. морось{туман}  ?/?  
+9.4 +9 97 +10  1022.2  -0.2  764  296           
15 18.09.17 тихо ()   0500 м  туман{морось}  ?/?  
+8.6 +8.3 98 +9  1020.9  -1.3  763  297           
18 18.09.17 160 (Ю) 4000 м  дымка{морось, туман}  10/10 300 м 
[St]
+8.7 +7.4 92 +9  1019.2  -1.7  762  296           
21 18.09.17 150 (ЮВ) 20000 м    10/10 300 м 
[St]
+10.1 +7.9 86 +10  1017.7  -1.4  761  294  +7.7    0.0     
00 19.09.17 170 (Ю) 12-18{18}  20000 м    9/9 300 м 
[St]
+12.2 +8 75 +10  1016.1  -1.7  759  292           
03 19.09.17 150 (ЮВ) 6{18}  10 км  слаб. ливневой дождь  10/10 300 м кучево-дожд. 
[Cb cap]
+11.9 +8.6 80 +11  1014.4  -1.7  758  291           
06 19.09.17 160 (Ю) 11-18{22}  10 км  {ливн. осадки}  9/9 600 м кучево-дожд. 
[Cb calv]
+11.2 +7.6 78 +9  1012.3  -2.1  757  292           
09 19.09.17 140 (ЮВ) 11-19{19}  10 км    10/10 600 м 
[Sc]
+12.1 +6.5 69 +10  1011.4  -0.9  756  291    +12.9  0.8     
12 19.09.17 130 (ЮВ) 11-16{23}  10 км    10/10 300 м 
[St]
+12.8 +6.9 67 +11  1010.3  -0.9  755  290           
18 19.09.17 130 (ЮВ) 11-16{18}  10 км    10/10 300 м 
[St]
+13.6 +7.5 67 +12  1007.2  -1.6  753  288           
21 19.09.17 130 (ЮВ) 10-16{20}  20000 м    9/9 300 м 
[St]
+13.8 +8.2 69 +12  1007.1  -0.1  753  287  +12.1         
00 20.09.17 130 (ЮВ) 8-13{18}  20000 м    9/8 600 м верхняя 
[Sc|Ci fib]
+15.1 +9.3 68 +14  1006.4  -0.7  752  286           
06 20.09.17 110 (В) 7-11{15}  10 км    9/8 600 м верхняя 
[Sc|Ci fib]
+13.7 +8.5 71 +13  1005.6  0.2  752  287           
09 20.09.17 100 (В) 3{11}  10 км    9/9 600 м 
[Sc]
+11.5 +8.3 81 +11  1006.1  0.5  752  289    +16       
Время (UTC), дата Ветер
(°,м/с) 
Видим.   Явления Облачность Т
(°С)
Тd
(°С)
f(%) Тe
(°С)
Pmin
(гПа)
dP
(гПа)
Po
(мм)
O2
(г/м3)
Тmin Tmax R s Состояние
почвы

Для получения пояснительной информации подведите курсор к названию столбца.

ПОГОДА Озерная - архив

Всё, что Вы хотите узнать о погоде Озерная - удобно и подробно!

Выберите нужную дату (начиная с 1 января 2015* года) и нажмите кнопку "Найти".
Будут отображены архивные сводки погоды по пункту Озерная, начиная с указанной даты.


Отображать данные в формате CSV (для использования в таблицах Excel)


Внимание! Наш архив погоды предназначен исключительно для личного некоммерческого использования в познавательных целях. Если Вам необходимы официальные справки о состоянии погоды (для производственных, юридических, коммерческих и т.п. целей), обращайтесь в органы Росгидромета.

*Примечание: данная дата относится к архиву по метеостанциям СССР (Россия, СНГ, Балтия).
Архив по метеостанциям Зарубежной Европы и Азии (кроме Китая) хранится 10 дней, по другим регионам земного шара (Китай, Африка, Америка, Австралия, Океания) - 1 день.

Озерная - район местоположения метеостанции


Название, широта, долгота, высота метеостанции:
Озерная 51.5°ш. 156.5°д. 28 м над ур. моря [Российская Федерация]

Дополнительная информация

В oтличие oт бoльшинства пoгoдных сайтoв мы публикуем пoдрoбную метеoинфoрмацию в детальнoм прoфессиoнальнoм фoрмате.

Характеристики температуры и влажнoсти вoздуха измеряются на высoте 2 м в тени вдали oт зданий и деревьев.
Скoрoсть ветра измеряется на высoте 10 м (на урoвне рoста челoвека скoрoсть ветра ниже в 1.5-2 раза). Если метеoстанция нахoдится в гoрoде или в лесу, тo скoрoсть ветра занижена на 2-4 м/с пo сравнению с oткрытым местoм. Скoрoсть ветра над акватoриями крупных рек и oзёр, а также на вершинах хoлмoв на 2-5 м/с выше, чем в oбычных услoвиях.
Атмoсфернoе давление в разных тoчках местнoсти мoжет значительнo oтличаться oт давления на метеoстанции, в зависимoсти oт услoвий рельефа (при пoдъёме на 10 м давление пoнижается примернo на 1 мм рт.ст.).